Location: La Fredeussais
(48.1780°N, 1.3980°W)
Time: 08:05:03
(UTC+00:00)

Cosmos 1743 Rocket - Pass Details

Date: 09 May 2021
Orbit: 605 x 632 km, 82.6° (Epoch: 12 June)

Event Time Altitude Azimuth Distance (km) Brightness Sun altitude
Rises 20:06:53 0° 348° (NNW) 2,874 7.8 -6.0°
Reaches altitude 10° 20:09:07 10° 346° (NNW) 1,967 7.0 -6.3°
Maximum altitude 20:13:26 67° 264° (W) 662 3.9 -6.9°
Drops below altitude 10° 20:17:44 10° 182° (S) 1,962 5.8 -7.4°
Sets 20:19:57 0° 179° (S) 2,865 6.6 -7.7°
